[TLELIST] Archives

 

[list_settings.list_name] Current TLEs

August 22nd 2008 PDT

HST 1 20580U 90037B 08233.53397704 +.00000289 +00000-0 +94947-5 0 02189 2 20580 028.4694 263.5273 0003528 348.4868 011.5639 15.00400612804654 ISS (ZARYA) 1 25544U 98067A 08235.18692130 .00008481 00000-0 70571-4 0 1030 2 25544 051.6423 037.5819 0008550 043.7842 290.6310 15.71081565558910 CXO 1 25867U 99040B 08233.66666667 +.00000192 +00000-0 +10000-3 0 02354 2 25867 064.0690 078.7031 6952793 278.2667 356.2363 00.37808290003873 ____________________________________________________________________ These 2-Line ...Continue Reading

[list_settings.list_name] Current TLEs

August 21st 2008 PDT

HST 1 20580U 90037B 08234.19915878 .00000288 00000-0 94198-5 0 2042 2 20580 028.4693 259.1901 0003518 355.2429 004.8125 15.00400767804757 ISS (ZARYA) 1 25544U 98067A 08232.86279256 +.00007408 +00000-0 +62374-4 0 00907 2 25544 051.6425 049.4633 0008457 035.6372 105.0816 15.71035575558552 CXO 1 25867U 99040B 08233.66666667 +.00000192 +00000-0 +10000-3 0 02354 2 25867 064.0690 078.7031 6952793 278.2667 356.2363 00.37808290003873 ____________________________________________________________________ These 2-Line ...Continue Reading

[list_settings.list_name] Current TLEs

August 20th 2008 PDT

HST 1 20580U 90037B 08232.53620438 .00000281 00000-0 88450-5 0 2039 2 20580 028.4694 270.0343 0003529 337.3752 022.6680 15.00400299804509 ISS (ZARYA) 1 25544U 98067A 08233.11120608 .00007537 00000-0 63358-4 0 920 2 25544 051.6425 048.1933 0008434 036.8556 069.7721 15.71040199558596 CXO 1 25867U 99040B 08231.04166667 +.00000184 +00000-0 +10000-3 0 02349 2 25867 064.0514 078.7867 6949254 278.2589 358.9609 00.37807084003867 ____________________________________________________________________ These 2-Line ...Continue Reading

[list_settings.list_name] Current TLEs

August 19th 2008 PDT

HST 1 20580U 90037B 08230.54065930 +.00000305 +00000-0 +10745-4 0 02160 2 20580 028.4693 283.0549 0003504 313.0930 046.9365 15.00399996804209 ISS (ZARYA) 1 25544U 98067A 08232.03721262 .00006790 00000-0 57606-4 0 854 2 25544 051.6421 053.6847 0008366 033.4920 114.8444 15.71019837558420 CXO 1 25867U 99040B 08231.04166667 +.00000184 +00000-0 +10000-3 0 02349 2 25867 064.0514 078.7867 6949254 278.2589 358.9609 00.37807084003867 ____________________________________________________________________ These 2-Line ...Continue Reading

[list_settings.list_name] Current TLEs

August 18th 2008 PDT

HST 1 20580U 90037B 08229.60940479 +.00000302 +00000-0 +10507-4 0 02146 2 20580 028.4694 289.1292 0003545 302.4081 057.6163 15.00399731804062 ISS (ZARYA) 1 25544U 98067A 08230.55399641 .00006516 00000-0 55528-4 0 768 2 25544 051.6423 061.2687 0008351 028.8270 005.3382 15.70996748558192 CXO 1 25867U 99040B 08231.04166667 +.00000184 +00000-0 +10000-3 0 02349 2 25867 064.0514 078.7867 6949254 278.2589 358.9609 00.37807084003867 ____________________________________________________________________ These 2-Line ...Continue Reading

[list_settings.list_name] Current TLEs

August 17th 2008 PDT

HST 1 20580U 90037B 08230.20806845 .00000304 00000-0 10638-4 0 2015 2 20580 028.4694 285.2256 0003550 308.6576 051.3699 15.00399907804152 ISS (ZARYA) 1 25544U 98067A 08229.54648670 .00007603 00000-0 64016-4 0 696 2 25544 051.6422 066.4204 0008290 024.5112 067.7990 15.70986470558034 CXO 1 25867U 99040B 08228.41666667 +.00000092 +00000-0 +10000-3 0 02338 2 25867 064.0382 078.8521 6945111 278.2614 001.6542 00.37805959003851 ____________________________________________________________________ These 2-Line ...Continue Reading

[list_settings.list_name] Current TLEs

August 16th 2008 PDT

HST 1 20580U 90037B 08228.61163199 .00000307 00000-0 10915-4 0 2005 2 20580 028.4697 295.6361 0003553 291.1263 068.8947 15.00399538803911 ISS (ZARYA) 1 25544U 98067A 08228.38562500 .00006157 00000-0 52808-4 0 626 2 25544 051.6423 072.3556 0008274 020.9442 341.6749 15.70964695557859 CXO 1 25867U 99040B 08228.41666667 +.00000092 +00000-0 +10000-3 0 02338 2 25867 064.0382 078.8521 6945111 278.2614 001.6542 00.37805959003851 ____________________________________________________________________ These 2-Line ...Continue Reading

[list_settings.list_name] Current TLEs

August 15th 2008 PDT

HST 1 20580U 90037B 08226.61608713 +.00000279 +00000-0 +86842-5 0 02101 2 20580 028.4696 308.6497 0003639 269.8155 090.2018 15.00398783803618 ISS (ZARYA) 1 25544U 98067A 08227.51110226 .00011863 00000-0 97258-4 0 554 2 25544 051.6448 076.8280 0008059 018.2040 075.2824 15.70962716557715 CXO 1 25867U 99040B 08225.75000000 -.00000003 +00000-0 +10000-3 0 02327 2 25867 064.0271 078.9218 6940245 278.2717 358.6439 00.37805384003840 ____________________________________________________________________ These 2-Line ...Continue Reading

[list_settings.list_name] Current TLEs

August 14th 2008 PDT

HST 1 20580U 90037B 08225.68483279 .00000277 00000-0 85436-5 0 1986 2 20580 028.4696 314.7230 0003672 259.7863 100.2311 15.00398559803475 ISS (ZARYA) 1 25544U 98067A 08225.86121756 +.00011711 +00000-0 +88245-4 0 00435 2 25544 051.6417 085.2623 0010607 062.3973 050.5522 15.72979094557454 CXO 1 25867U 99040B 08225.75000000 -.00000003 +00000-0 +10000-3 0 02327 2 25867 064.0271 078.9218 6940245 278.2717 358.6439 00.37805384003840 ____________________________________________________________________ These 2-Line ...Continue Reading

[list_settings.list_name] Current TLEs

August 13th 2008 PDT

HST 1 20580U 90037B 08225.68483279 .00000277 00000-0 85436-5 0 1986 2 20580 028.4696 314.7230 0003672 259.7863 100.2311 15.00398559803475 ISS (ZARYA) 1 25544U 98067A 08226.17630984 .00011857 00000-0 89260-4 0 459 2 25544 051.6419 083.6474 0010490 062.7294 035.7072 15.72987362557500 CXO 1 25867U 99040B 08225.75000000 -.00000003 +00000-0 +10000-3 0 02327 2 25867 064.0271 078.9218 6940245 278.2717 358.6439 00.37805384003840 ____________________________________________________________________ These 2-Line ...Continue Reading
  • This mailing list is a public mailing list - anyone may join or leave, at any time.
  • This mailing list is announce-only.

International Space Station (ISS) / Hubble Space Telescope (HST) / Chandra X-Ray Observatory Orbital Data via EMAIL

Privacy Policy:

Private list